Location: Albuquerque Trailhead
(34.7934°N, 106.3736°W)
Time: 00:46:34
(UTC+00:00)

COSMOS 2406 - Pass Details

Date: 20 June 2021
Orbit: 843 x 864 km, 71.0° (Epoch: 01 August)

Event Time Altitude Azimuth Distance (km) Brightness Sun altitude
Exits shadow 10:14:22 19° 186° (S) 1,901 4.6 -16.8°
Maximum altitude 10:18:26 67° 108° (ESE) 913 3.4 -16.2°
Drops below altitude 10° 10:24:02 10° 27° (NNE) 2,467 6.8 -15.4°
Sets 10:26:30 0° 25° (NNE) 3,407 7.7 -15.0°
